Time,TemperatureF,DewpointF,PressureIn,WindDirection,WindDirectionDegrees,WindSpeedMPH,WindSpeedGustMPH,Humidity,HourlyPrecipIn,Conditions,Clouds,dailyrainin,SoftwareType,DateUTC
2013-02-15 00:03:00,61.0,24.0,30.17,NNE,30,2.0,5.0,24,0.00,,---,0.00,VWS V14.00,2013-02-15 08:03:00,
2013-02-15 00:08:00,60.7,24.7,30.17,NNE,30,4.0,12.0,25,0.00,,---,0.00,VWS V14.00,2013-02-15 08:08:00,
2013-02-15 00:13:00,60.3,24.4,30.17,NNE,30,2.0,5.0,25,0.00,,---,0.00,VWS V14.00,2013-02-15 08:13:00,
2013-02-15 00:18:00,59.8,23.9,30.17,NNE,30,4.0,6.0,25,0.00,,---,0.00,VWS V14.00,2013-02-15 08:18:00,
2013-02-15 00:23:00,59.5,24.6,30.17,NNE,30,5.0,9.0,26,0.00,,---,0.00,VWS V14.00,2013-02-15 08:23:00,
2013-02-15 00:28:00,59.5,24.6,30.17,NNE,30,2.0,4.0,26,0.00,,---,0.00,VWS V14.00,2013-02-15 08:28:00,
2013-02-15 00:33:00,59.6,23.8,30.17,NNE,30,3.0,4.0,25,0.00,,---,0.00,VWS V14.00,2013-02-15 08:33:00,
2013-02-15 00:38:00,59.4,24.5,30.17,NNE,30,2.0,4.0,26,0.00,,---,0.00,VWS V14.00,2013-02-15 08:38:00,
2013-02-15 00:43:00,59.6,23.8,30.17,NNE,30,2.0,3.0,25,0.00,,---,0.00,VWS V14.00,2013-02-15 08:43:00,
2013-02-15 00:48:00,60.0,24.1,30.17,NNE,30,3.0,3.0,25,0.00,,---,0.00,VWS V14.00,2013-02-15 08:48:00,
2013-02-15 00:53:00,60.5,24.5,30.17,NNE,30,4.0,4.0,25,0.00,,---,0.00,VWS V14.00,2013-02-15 08:53:00,
2013-02-15 00:58:00,60.2,24.3,30.17,NNE,30,3.0,4.0,25,0.00,,---,0.00,VWS V14.00,2013-02-15 08:58:00,
2013-02-15 01:03:00,60.8,24.8,30.17,NNE,30,2.0,4.0,25,0.00,,---,0.00,VWS V14.00,2013-02-15 09:03:00,
2013-02-15 01:08:00,61.4,24.3,30.16,NNE,30,2.0,9.0,24,0.00,,---,0.00,VWS V14.00,2013-02-15 09:08:00,
2013-02-15 01:13:00,60.4,24.4,30.16,NNE,30,4.0,6.0,25,0.00,,---,0.00,VWS V14.00,2013-02-15 09:13:00,
2013-02-15 01:18:00,59.3,23.5,30.16,NNE,30,1.0,3.0,25,0.00,,---,0.00,VWS V14.00,2013-02-15 09:18:00,
2013-02-15 01:23:00,59.5,23.7,30.16,NNE,30,2.0,4.0,25,0.00,,---,0.00,VWS V14.00,2013-02-15 09:23:00,
2013-02-15 01:28:00,59.0,24.2,30.16,NNE,30,5.0,7.0,26,0.00,,---,0.00,VWS V14.00,2013-02-15 09:28:00,
2013-02-15 01:33:00,59.2,24.4,30.16,NNE,30,4.0,9.0,26,0.00,,---,0.00,VWS V14.00,2013-02-15 09:33:00,
2013-02-15 01:38:00,59.9,24.0,30.16,NNE,30,2.0,6.0,25,0.00,,---,0.00,VWS V14.00,2013-02-15 09:38:00,
2013-02-15 01:43:00,60.0,24.1,30.16,NNE,30,3.0,6.0,25,0.00,,---,0.00,VWS V14.00,2013-02-15 09:43:00,
2013-02-15 01:48:00,59.1,23.3,30.16,NNE,30,3.0,9.0,25,0.00,,---,0.00,VWS V14.00,2013-02-15 09:48:00,
2013-02-15 01:53:00,58.6,23.8,30.16,NNE,30,9.0,10.0,26,0.00,,---,0.00,VWS V14.00,2013-02-15 09:53:00,
2013-02-15 01:58:00,58.6,23.8,30.16,NNE,30,3.0,8.0,26,0.00,,---,0.00,VWS V14.00,2013-02-15 09:58:00,
2013-02-15 02:03:00,58.2,24.4,30.16,NNE,30,6.0,8.0,27,0.00,,---,0.00,VWS V14.00,2013-02-15 10:03:00,
2013-02-15 02:08:00,58.3,24.5,30.16,NNE,30,5.0,10.0,27,0.00,,---,0.00,VWS V14.00,2013-02-15 10:08:00,
2013-02-15 02:13:00,59.1,24.3,30.16,NNE,30,4.0,8.0,26,0.00,,---,0.00,VWS V14.00,2013-02-15 10:13:00,
2013-02-15 02:18:00,60.7,24.7,30.16,NNE,30,5.0,9.0,25,0.00,,---,0.00,VWS V14.00,2013-02-15 10:18:00,
2013-02-15 02:23:00,61.6,24.5,30.16,NNE,30,3.0,6.0,24,0.00,,---,0.00,VWS V14.00,2013-02-15 10:23:00,
2013-02-15 02:28:00,61.1,24.1,30.16,NNE,30,3.0,6.0,24,0.00,,---,0.00,VWS V14.00,2013-02-15 10:28:00,
2013-02-15 02:33:00,60.0,24.1,30.16,NNE,30,6.0,10.0,25,0.00,,---,0.00,VWS V14.00,2013-02-15 10:33:00,
2013-02-15 02:38:00,61.0,25.0,30.16,NNE,30,4.0,6.0,25,0.00,,---,0.00,VWS V14.00,2013-02-15 10:38:00,
2013-02-15 02:43:00,61.8,24.6,30.16,NNE,30,4.0,4.0,24,0.00,,---,0.00,VWS V14.00,2013-02-15 10:43:00,
2013-02-15 02:48:00,61.3,24.2,30.16,NNE,29,4.0,15.0,24,0.00,,---,0.00,VWS V14.00,2013-02-15 10:48:00,
2013-02-15 02:53:00,63.2,24.8,30.16,NNE,19,6.0,10.0,23,0.00,,---,0.00,VWS V14.00,2013-02-15 10:53:00,
2013-02-15 02:58:00,63.6,25.1,30.16,NNW,340,4.0,19.0,23,0.00,,---,0.00,VWS V14.00,2013-02-15 10:58:00,
2013-02-15 03:03:00,63.1,24.7,30.16,NNW,340,2.0,5.0,23,0.00,,---,0.00,VWS V14.00,2013-02-15 11:03:00,
2013-02-15 03:08:00,63.0,24.6,30.16,NNW,338,3.0,5.0,23,0.00,,---,0.00,VWS V14.00,2013-02-15 11:08:00,
2013-02-15 03:13:00,62.7,24.4,30.16,NNW,344,3.0,14.0,23,0.00,,---,0.00,VWS V14.00,2013-02-15 11:13:00,
2013-02-15 03:18:00,62.5,24.2,30.15,NNW,344,3.0,6.0,23,0.00,,---,0.00,VWS V14.00,2013-02-15 11:18:00,
2013-02-15 03:23:00,62.9,24.6,30.16,NNW,348,12.0,12.0,23,0.00,,---,0.00,VWS V14.00,2013-02-15 11:23:00,
2013-02-15 03:28:00,63.1,24.7,30.16,North,350,10.0,16.0,23,0.00,,---,0.00,VWS V14.00,2013-02-15 11:28:00,
2013-02-15 03:33:00,63.2,24.8,30.16,North,355,6.0,13.0,23,0.00,,---,0.00,VWS V14.00,2013-02-15 11:33:00,
2013-02-15 03:38:00,63.7,25.2,30.16,North,355,7.0,17.0,23,0.00,,---,0.00,VWS V14.00,2013-02-15 11:38:00,
2013-02-15 03:44:00,63.4,25.0,30.16,North,5,10.0,17.0,23,0.00,,---,0.00,VWS V14.00,2013-02-15 11:44:00,
2013-02-15 03:49:00,63.9,24.3,30.16,North,360,16.0,23.0,22,0.00,,---,0.00,VWS V14.00,2013-02-15 11:49:00,
2013-02-15 03:54:00,64.3,23.6,30.16,North,355,13.0,28.0,21,0.00,,---,0.00,VWS V14.00,2013-02-15 11:54:00,
2013-02-15 03:59:00,64.6,23.8,30.16,North,5,5.0,12.0,21,0.00,,---,0.00,VWS V14.00,2013-02-15 11:59:00,
2013-02-15 04:04:00,64.2,24.6,30.17,NNW,338,14.0,15.0,22,0.00,,---,0.00,VWS V14.00,2013-02-15 12:04:00,
2013-02-15 04:09:00,64.1,24.5,30.17,NNE,17,4.0,11.0,22,0.00,,---,0.00,VWS V14.00,2013-02-15 12:09:00,
2013-02-15 04:14:00,64.1,23.4,30.17,NNW,345,8.0,16.0,21,0.00,,---,0.00,VWS V14.00,2013-02-15 12:14:00,
2013-02-15 04:19:00,64.2,24.6,30.17,North,5,6.0,20.0,22,0.00,,---,0.00,VWS V14.00,2013-02-15 12:19:00,
2013-02-15 04:24:00,63.9,24.3,30.17,North,351,14.0,16.0,22,0.00,,---,0.00,VWS V14.00,2013-02-15 12:24:00,
2013-02-15 04:29:00,63.3,23.8,30.17,North,355,6.0,15.0,22,0.00,,---,0.00,VWS V14.00,2013-02-15 12:29:00,
2013-02-15 04:34:00,62.9,23.5,30.17,North,360,16.0,19.0,22,0.00,,---,0.00,VWS V14.00,2013-02-15 12:34:00,
2013-02-15 04:39:00,63.1,23.7,30.17,North,351,13.0,20.0,22,0.00,,---,0.00,VWS V14.00,2013-02-15 12:39:00,
2013-02-15 04:44:00,63.3,23.8,30.17,North,355,9.0,20.0,22,0.00,,---,0.00,VWS V14.00,2013-02-15 12:44:00,
2013-02-15 04:49:00,63.3,23.8,30.18,North,355,8.0,23.0,22,0.00,,---,0.00,VWS V14.00,2013-02-15 12:49:00,
2013-02-15 04:54:00,62.7,23.3,30.18,North,360,2.0,12.0,22,0.00,,---,0.00,VWS V14.00,2013-02-15 12:54:00,
2013-02-15 04:59:00,62.4,23.1,30.18,North,360,13.0,16.0,22,0.00,,---,0.00,VWS V14.00,2013-02-15 12:59:00,
2013-02-15 05:04:00,62.8,23.4,30.18,North,360,12.0,18.0,22,0.00,,---,0.00,VWS V14.00,2013-02-15 13:04:00,
2013-02-15 05:09:00,62.7,23.3,30.18,North,360,4.0,13.0,22,0.00,,---,0.00,VWS V14.00,2013-02-15 13:09:00,
2013-02-15 05:14:00,62.2,24.0,30.18,NNW,339,18.0,18.0,23,0.00,,---,0.00,VWS V14.00,2013-02-15 13:14:00,
2013-02-15 05:19:00,61.7,23.5,30.18,NNW,347,9.0,19.0,23,0.00,,---,0.00,VWS V14.00,2013-02-15 13:19:00,
2013-02-15 05:24:00,62.5,24.2,30.18,North,5,17.0,24.0,23,0.00,,---,0.00,VWS V14.00,2013-02-15 13:24:00,
2013-02-15 05:29:00,62.8,23.4,30.19,NNW,344,6.0,23.0,22,0.00,,---,0.00,VWS V14.00,2013-02-15 13:29:00,
2013-02-15 05:34:00,63.1,23.7,30.19,North,355,14.0,35.0,22,0.00,,---,0.00,VWS V14.00,2013-02-15 13:34:00,
2013-02-15 05:39:00,63.3,23.8,30.19,NNW,348,17.0,27.0,22,0.00,,---,0.00,VWS V14.00,2013-02-15 13:39:00,
2013-02-15 05:44:00,63.3,23.8,30.19,North,360,18.0,25.0,22,0.00,,---,0.00,VWS V14.00,2013-02-15 13:44:00,
2013-02-15 05:49:00,63.1,23.7,30.19,NNW,338,18.0,25.0,22,0.00,,---,0.00,VWS V14.00,2013-02-15 13:49:00,
2013-02-15 05:54:00,62.7,23.3,30.19,North,360,15.0,22.0,22,0.00,,---,0.00,VWS V14.00,2013-02-15 13:54:00,
2013-02-15 05:59:00,62.5,23.2,30.19,North,360,18.0,24.0,22,0.00,,---,0.00,VWS V14.00,2013-02-15 13:59:00,
2013-02-15 06:04:00,62.7,23.3,30.19,North,355,16.0,30.0,22,0.00,,---,0.00,VWS V14.00,2013-02-15 14:04:00,
2013-02-15 06:09:00,62.4,23.1,30.19,North,10,13.0,25.0,22,0.00,,---,0.00,VWS V14.00,2013-02-15 14:09:00,
2013-02-15 06:14:00,62.3,23.0,30.20,North,355,20.0,25.0,22,0.00,,---,0.00,VWS V14.00,2013-02-15 14:14:00,
2013-02-15 06:19:00,62.4,23.1,30.20,North,349,18.0,20.0,22,0.00,,---,0.00,VWS V14.00,2013-02-15 14:19:00,
2013-02-15 06:24:00,62.1,22.8,30.20,North,355,7.0,12.0,22,0.00,,---,0.00,VWS V14.00,2013-02-15 14:24:00,
2013-02-15 06:29:00,61.7,22.5,30.21,North,360,6.0,14.0,22,0.00,,---,0.00,VWS V14.00,2013-02-15 14:29:00,
2013-02-15 06:34:00,61.4,22.2,30.21,North,355,4.0,12.0,22,0.00,,---,0.00,VWS V14.00,2013-02-15 14:34:00,
2013-02-15 06:39:00,61.1,23.0,30.21,NNW,344,2.0,14.0,23,0.00,,---,0.00,VWS V14.00,2013-02-15 14:39:00,
2013-02-15 06:44:00,61.0,21.9,30.21,NNW,344,2.0,7.0,22,0.00,,---,0.00,VWS V14.00,2013-02-15 14:44:00,
2013-02-15 06:49:00,60.9,22.9,30.22,NNW,344,3.0,11.0,23,0.00,,---,0.00,VWS V14.00,2013-02-15 14:49:00,
2013-02-15 06:54:00,60.7,22.7,30.21,NNW,344,4.0,6.0,23,0.00,,---,0.00,VWS V14.00,2013-02-15 14:54:00,
2013-02-15 06:59:00,61.2,22.1,30.22,NNW,348,8.0,14.0,22,0.00,,---,0.00,VWS V14.00,2013-02-15 14:59:00,
2013-02-15 07:04:00,61.7,22.5,30.22,North,5,10.0,20.0,22,0.00,,---,0.00,VWS V14.00,2013-02-15 15:04:00,
2013-02-15 07:09:00,62.5,22.1,30.22,North,5,21.0,24.0,21,0.00,,---,0.00,VWS V14.00,2013-02-15 15:09:00,
2013-02-15 07:14:00,63.0,22.5,30.22,North,355,9.0,19.0,21,0.00,,---,0.00,VWS V14.00,2013-02-15 15:14:00,
2013-02-15 07:19:00,63.1,22.6,30.22,North,355,6.0,18.0,21,0.00,,---,0.00,VWS V14.00,2013-02-15 15:19:00,
2013-02-15 07:24:00,62.9,22.4,30.23,NNW,342,18.0,19.0,21,0.00,,---,0.00,VWS V14.00,2013-02-15 15:24:00,
2013-02-15 07:29:00,63.3,21.6,30.24,NW,319,14.0,21.0,20,0.00,,---,0.00,VWS V14.00,2013-02-15 15:29:00,
2013-02-15 07:34:00,63.5,21.7,30.23,NNW,347,11.0,20.0,20,0.00,,---,0.00,VWS V14.00,2013-02-15 15:34:00,
2013-02-15 07:39:00,63.4,21.7,30.24,NNW,336,4.0,21.0,20,0.00,,---,0.00,VWS V14.00,2013-02-15 15:39:00,
2013-02-15 07:44:00,63.3,21.6,30.24,NNW,337,6.0,19.0,20,0.00,,---,0.00,VWS V14.00,2013-02-15 15:44:00,
2013-02-15 07:49:00,63.3,21.6,30.24,NW,324,8.0,16.0,20,0.00,,---,0.00,VWS V14.00,2013-02-15 15:49:00,
2013-02-15 07:54:00,63.6,21.8,30.24,NW,309,12.0,18.0,20,0.00,,---,0.00,VWS V14.00,2013-02-15 15:54:00,
2013-02-15 07:59:00,63.9,22.1,30.24,NW,320,10.0,18.0,20,0.00,,---,0.00,VWS V14.00,2013-02-15 15:59:00,
2013-02-15 08:04:00,63.9,22.1,30.25,NNW,329,12.0,17.0,20,0.00,,---,0.00,VWS V14.00,2013-02-15 16:04:00,
2013-02-15 08:09:00,63.9,22.1,30.25,NW,323,17.0,21.0,20,0.00,,---,0.00,VWS V14.00,2013-02-15 16:09:00,
2013-02-15 08:14:00,64.1,22.2,30.25,NNW,333,9.0,18.0,20,0.00,,---,0.00,VWS V14.00,2013-02-15 16:14:00,
2013-02-15 08:19:00,64.7,21.5,30.25,North,350,12.0,17.0,19,0.00,,---,0.00,VWS V14.00,2013-02-15 16:19:00,
2013-02-15 08:24:00,65.4,20.8,30.25,NNW,345,7.0,16.0,18,0.00,,---,0.00,VWS V14.00,2013-02-15 16:24:00,
2013-02-15 08:29:00,65.9,21.2,30.25,North,355,8.0,24.0,18,0.00,,---,0.00,VWS V14.00,2013-02-15 16:29:00,
2013-02-15 08:34:00,66.1,21.4,30.25,North,5,12.0,20.0,18,0.00,,---,0.00,VWS V14.00,2013-02-15 16:34:00,
2013-02-15 08:39:00,66.4,21.6,30.25,North,5,5.0,22.0,18,0.00,,---,0.00,VWS V14.00,2013-02-15 16:39:00,
2013-02-15 08:44:00,66.5,21.7,30.26,NNW,346,17.0,22.0,18,0.00,,---,0.00,VWS V14.00,2013-02-15 16:44:00,
2013-02-15 08:49:00,66.6,21.8,30.26,NNW,338,14.0,18.0,18,0.00,,---,0.00,VWS V14.00,2013-02-15 16:49:00,
2013-02-15 08:54:00,66.8,20.6,30.26,North,360,8.0,17.0,17,0.00,,---,0.00,VWS V14.00,2013-02-15 16:54:00,
2013-02-15 08:59:00,67.1,20.9,30.26,NNW,341,12.0,22.0,17,0.00,,---,0.00,VWS V14.00,2013-02-15 16:59:00,
2013-02-15 09:04:00,67.1,20.9,30.26,NNW,338,8.0,20.0,17,0.00,,---,0.00,VWS V14.00,2013-02-15 17:04:00,
2013-02-15 09:09:00,67.4,21.1,30.26,NNW,344,9.0,12.0,17,0.00,,---,0.00,VWS V14.00,2013-02-15 17:09:00,
2013-02-15 09:14:00,67.7,21.4,30.26,NNW,346,4.0,18.0,17,0.00,,---,0.00,VWS V14.00,2013-02-15 17:14:00,
2013-02-15 09:19:00,68.1,20.2,30.26,NNE,13,6.0,15.0,16,0.00,,---,0.00,VWS V14.00,2013-02-15 17:19:00,
2013-02-15 09:24:00,68.4,20.5,30.26,NNE,13,2.0,7.0,16,0.00,,---,0.00,VWS V14.00,2013-02-15 17:24:00,
2013-02-15 09:29:00,69.0,19.5,30.26,NNE,13,3.0,12.0,15,0.00,,---,0.00,VWS V14.00,2013-02-15 17:29:00,
2013-02-15 09:34:00,69.2,19.6,30.26,NNE,13,4.0,7.0,15,0.00,,---,0.00,VWS V14.00,2013-02-15 17:34:00,
2013-02-15 09:39:00,69.3,19.7,30.26,North,355,6.0,17.0,15,0.00,,---,0.00,VWS V14.00,2013-02-15 17:39:00,
2013-02-15 09:44:00,69.2,19.6,30.26,NNW,346,8.0,14.0,15,0.00,,---,0.00,VWS V14.00,2013-02-15 17:44:00,
2013-02-15 09:49:00,69.6,19.9,30.26,NNW,346,13.0,18.0,15,0.00,,---,0.00,VWS V14.00,2013-02-15 17:49:00,
2013-02-15 09:54:00,69.8,18.5,30.26,NW,306,17.0,19.0,14,0.00,,---,0.00,VWS V14.00,2013-02-15 17:54:00,
2013-02-15 09:59:00,70.0,18.6,30.26,NW,325,4.0,16.0,14,0.00,,---,0.00,VWS V14.00,2013-02-15 17:59:00,
2013-02-15 10:04:00,70.4,20.6,30.26,NNE,30,14.0,22.0,15,0.00,,---,0.00,VWS V14.00,2013-02-15 18:04:00,
2013-02-15 10:09:00,70.2,18.8,30.25,NNW,334,11.0,15.0,14,0.00,,---,0.00,VWS V14.00,2013-02-15 18:09:00,
2013-02-15 10:14:00,70.4,19.0,30.25,NW,318,7.0,18.0,14,0.00,,---,0.00,VWS V14.00,2013-02-15 18:14:00,
2013-02-15 10:19:00,70.3,18.9,30.26,NNW,340,10.0,18.0,14,0.00,,---,0.00,VWS V14.00,2013-02-15 18:19:00,
2013-02-15 10:24:00,70.1,18.7,30.25,WNW,297,17.0,20.0,14,0.00,,---,0.00,VWS V14.00,2013-02-15 18:24:00,
2013-02-15 10:29:00,70.2,18.8,30.25,NNW,341,14.0,15.0,14,0.00,,---,0.00,VWS V14.00,2013-02-15 18:29:00,
2013-02-15 10:34:00,70.7,19.2,30.25,NW,317,15.0,20.0,14,0.00,,---,0.00,VWS V14.00,2013-02-15 18:34:00,
2013-02-15 10:39:00,71.1,19.5,30.25,NNW,348,14.0,19.0,14,0.00,,---,0.00,VWS V14.00,2013-02-15 18:39:00,
2013-02-15 10:44:00,71.6,18.2,30.25,NNE,15,14.0,19.0,13,0.00,,---,0.00,VWS V14.00,2013-02-15 18:44:00,
2013-02-15 10:49:00,71.7,18.3,30.25,North,5,5.0,17.0,13,0.00,,---,0.00,VWS V14.00,2013-02-15 18:49:00,
2013-02-15 10:54:00,72.4,18.8,30.25,NE,35,15.0,21.0,13,0.00,,---,0.00,VWS V14.00,2013-02-15 18:54:00,
2013-02-15 10:59:00,72.5,18.9,30.25,NE,46,13.0,16.0,13,0.00,,---,0.00,VWS V14.00,2013-02-15 18:59:00,
2013-02-15 11:04:00,72.6,17.1,30.25,ESE,102,5.0,18.0,12,0.00,,---,0.00,VWS V14.00,2013-02-15 19:04:00,
2013-02-15 11:09:00,72.6,17.1,30.25,ESE,114,24.0,25.0,12,0.00,,---,0.00,VWS V14.00,2013-02-15 19:09:00,
2013-02-15 11:14:00,72.3,16.9,30.24,ESE,111,16.0,19.0,12,0.00,,---,0.00,VWS V14.00,2013-02-15 19:14:00,
2013-02-15 11:19:00,72.6,15.1,30.24,ESE,122,4.0,20.0,11,0.00,,---,0.00,VWS V14.00,2013-02-15 19:19:00,
2013-02-15 11:24:00,73.1,17.5,30.24,SSE,162,8.0,31.0,12,0.00,,---,0.00,VWS V14.00,2013-02-15 19:24:00,
2013-02-15 11:29:00,73.4,15.7,30.24,ENE,77,15.0,20.0,11,0.00,,---,0.00,VWS V14.00,2013-02-15 19:29:00,
2013-02-15 11:34:00,73.5,17.8,30.24,NE,45,21.0,24.0,12,0.00,,---,0.00,VWS V14.00,2013-02-15 19:34:00,
2013-02-15 11:39:00,73.9,16.1,30.23,ENE,65,27.0,33.0,11,0.00,,---,0.00,VWS V14.00,2013-02-15 19:39:00,
2013-02-15 11:44:00,74.0,16.2,30.23,NE,36,14.0,25.0,11,0.00,,---,0.00,VWS V14.00,2013-02-15 19:44:00,
2013-02-15 11:49:00,74.0,16.2,30.23,NE,42,13.0,28.0,11,0.00,,---,0.00,VWS V14.00,2013-02-15 19:49:00,
2013-02-15 11:54:00,73.8,16.0,30.23,ENE,65,16.0,25.0,11,0.00,,---,0.00,VWS V14.00,2013-02-15 19:54:00,
2013-02-15 12:00:00,73.7,16.0,30.23,ENE,77,12.0,22.0,11,0.00,,---,0.00,VWS V14.00,2013-02-15 20:00:00,
2013-02-15 12:05:00,74.3,16.4,30.22,ENE,61,19.0,37.0,11,0.00,,---,0.00,VWS V14.00,2013-02-15 20:05:00,
2013-02-15 12:10:00,73.8,16.0,30.22,NE,47,19.0,30.0,11,0.00,,---,0.00,VWS V14.00,2013-02-15 20:10:00,
2013-02-15 12:15:00,73.7,16.0,30.22,ENE,60,19.0,29.0,11,0.00,,---,0.00,VWS V14.00,2013-02-15 20:15:00,
2013-02-15 12:20:00,73.8,16.0,30.22,East,84,18.0,31.0,11,0.00,,---,0.00,VWS V14.00,2013-02-15 20:20:00,
2013-02-15 12:25:00,73.5,15.8,30.22,NE,40,20.0,29.0,11,0.00,,---,0.00,VWS V14.00,2013-02-15 20:25:00,
2013-02-15 12:30:00,73.8,16.0,30.22,NNE,17,14.0,28.0,11,0.00,,---,0.00,VWS V14.00,2013-02-15 20:30:00,
2013-02-15 12:35:00,73.9,16.1,30.21,ENE,58,26.0,30.0,11,0.00,,---,0.00,VWS V14.00,2013-02-15 20:35:00,
2013-02-15 12:40:00,74.0,16.2,30.22,East,79,7.0,25.0,11,0.00,,---,0.00,VWS V14.00,2013-02-15 20:40:00,
2013-02-15 12:45:00,74.3,16.4,30.21,ENE,57,8.0,25.0,11,0.00,,---,0.00,VWS V14.00,2013-02-15 20:45:00,
2013-02-15 12:50:00,75.0,17.0,30.21,ENE,60,11.0,20.0,11,0.00,,---,0.00,VWS V14.00,2013-02-15 20:50:00,
2013-02-15 12:55:00,74.8,14.6,30.20,NE,47,16.0,24.0,10,0.00,,---,0.00,VWS V14.00,2013-02-15 20:55:00,
2013-02-15 13:00:00,75.0,14.8,30.20,NE,37,20.0,27.0,10,0.00,,---,0.00,VWS V14.00,2013-02-15 21:00:00,
2013-02-15 13:05:00,74.7,16.7,30.20,ENE,75,14.0,21.0,11,0.00,,---,0.00,VWS V14.00,2013-02-15 21:05:00,
2013-02-15 13:10:00,75.1,14.9,30.20,NE,35,16.0,19.0,10,0.00,,---,0.00,VWS V14.00,2013-02-15 21:10:00,
2013-02-15 13:15:00,75.6,15.2,30.19,North,5,8.0,20.0,10,0.00,,---,0.00,VWS V14.00,2013-02-15 21:15:00,
2013-02-15 13:20:00,75.8,15.4,30.19,NNE,31,14.0,24.0,10,0.00,,---,0.00,VWS V14.00,2013-02-15 21:20:00,
2013-02-15 13:25:00,76.0,15.6,30.19,NE,43,14.0,23.0,10,0.00,,---,0.00,VWS V14.00,2013-02-15 21:25:00,
2013-02-15 13:30:00,76.3,15.8,30.19,North,5,6.0,19.0,10,0.00,,---,0.00,VWS V14.00,2013-02-15 21:30:00,
2013-02-15 13:35:00,76.4,15.9,30.19,North,5,6.0,16.0,10,0.00,,---,0.00,VWS V14.00,2013-02-15 21:35:00,
2013-02-15 13:40:00,76.7,16.1,30.19,SW,215,9.0,18.0,10,0.00,,---,0.00,VWS V14.00,2013-02-15 21:40:00,
2013-02-15 13:45:00,76.2,15.7,30.18,SW,216,7.0,12.0,10,0.00,,---,0.00,VWS V14.00,2013-02-15 21:45:00,
2013-02-15 13:50:00,75.8,17.6,30.18,SSE,153,10.0,17.0,11,0.00,,---,0.00,VWS V14.00,2013-02-15 21:50:00,
2013-02-15 13:55:00,75.2,17.1,30.18,SSW,198,5.0,13.0,11,0.00,,---,0.00,VWS V14.00,2013-02-15 21:55:00,
2013-02-15 14:00:00,75.2,17.1,30.18,South,169,12.0,19.0,11,0.00,,---,0.00,VWS V14.00,2013-02-15 22:00:00,
2013-02-15 14:05:00,75.5,17.4,30.18,SSE,168,5.0,15.0,11,0.00,,---,0.00,VWS V14.00,2013-02-15 22:05:00,
2013-02-15 14:10:00,75.8,15.4,30.17,SW,227,4.0,19.0,10,0.00,,---,0.00,VWS V14.00,2013-02-15 22:10:00,
2013-02-15 14:15:00,75.7,17.5,30.17,SW,226,6.0,10.0,11,0.00,,---,0.00,VWS V14.00,2013-02-15 22:15:00,
2013-02-15 14:20:00,75.6,15.2,30.17,SW,225,8.0,8.0,10,0.00,,---,0.00,VWS V14.00,2013-02-15 22:20:00,
2013-02-15 14:25:00,76.0,17.7,30.17,SW,225,7.0,8.0,11,0.00,,---,0.00,VWS V14.00,2013-02-15 22:25:00,
2013-02-15 14:30:00,76.2,15.7,30.17,SW,225,9.0,12.0,10,0.00,,---,0.00,VWS V14.00,2013-02-15 22:30:00,
2013-02-15 14:35:00,76.3,15.8,30.17,SW,225,5.0,8.0,10,0.00,,---,0.00,VWS V14.00,2013-02-15 22:35:00,
2013-02-15 14:40:00,76.3,15.8,30.17,SW,225,3.0,12.0,10,0.00,,---,0.00,VWS V14.00,2013-02-15 22:40:00,
2013-02-15 14:45:00,76.2,15.7,30.16,SW,225,10.0,12.0,10,0.00,,---,0.00,VWS V14.00,2013-02-15 22:45:00,
2013-02-15 14:50:00,75.7,17.5,30.16,SW,225,5.0,18.0,11,0.00,,---,0.00,VWS V14.00,2013-02-15 22:50:00,
2013-02-15 14:55:00,75.4,17.3,30.16,SW,236,11.0,20.0,11,0.00,,---,0.00,VWS V14.00,2013-02-15 22:55:00,
2013-02-15 15:00:00,75.6,17.4,30.16,SW,236,6.0,14.0,11,0.00,,---,0.00,VWS V14.00,2013-02-15 23:00:00,
2013-02-15 15:05:00,75.7,17.5,30.16,SW,236,4.0,14.0,11,0.00,,---,0.00,VWS V14.00,2013-02-15 23:05:00,
2013-02-15 15:10:00,75.7,17.5,30.16,SW,236,5.0,18.0,11,0.00,,---,0.00,VWS V14.00,2013-02-15 23:10:00,
2013-02-15 15:15:00,75.7,17.5,30.16,SW,236,8.0,12.0,11,0.00,,---,0.00,VWS V14.00,2013-02-15 23:15:00,
2013-02-15 15:20:00,76.0,17.7,30.16,SW,236,3.0,10.0,11,0.00,,---,0.00,VWS V14.00,2013-02-15 23:20:00,
2013-02-15 15:25:00,75.8,17.6,30.16,SW,226,0.0,12.0,11,0.00,,---,0.00,VWS V14.00,2013-02-15 23:25:00,
2013-02-15 15:30:00,75.6,17.4,30.16,SW,226,5.0,13.0,11,0.00,,---,0.00,VWS V14.00,2013-02-15 23:30:00,
2013-02-15 15:35:00,75.9,17.7,30.16,SW,221,6.0,15.0,11,0.00,,---,0.00,VWS V14.00,2013-02-15 23:35:00,
2013-02-15 15:40:00,76.0,17.7,30.16,SW,221,4.0,6.0,11,0.00,,---,0.00,VWS V14.00,2013-02-15 23:40:00,
2013-02-15 15:45:00,75.7,17.5,30.16,SW,221,4.0,10.0,11,0.00,,---,0.00,VWS V14.00,2013-02-15 23:45:00,
2013-02-15 15:50:00,75.5,17.4,30.16,SW,221,6.0,6.0,11,0.00,,---,0.00,VWS V14.00,2013-02-15 23:50:00,
2013-02-15 15:55:00,75.6,17.4,30.16,SW,221,7.0,9.0,11,0.00,,---,0.00,VWS V14.00,2013-02-15 23:55:00,
2013-02-15 16:00:00,75.2,17.1,30.16,SW,221,9.0,12.0,11,0.00,,---,0.00,VWS V14.00,2013-02-16 00:00:00,
2013-02-15 16:05:00,74.7,16.7,30.16,SW,221,8.0,13.0,11,0.00,,---,0.00,VWS V14.00,2013-02-16 00:05:00,
2013-02-15 16:10:00,74.3,16.4,30.16,SW,221,4.0,9.0,11,0.00,,---,0.00,VWS V14.00,2013-02-16 00:10:00,
2013-02-15 16:15:00,74.2,16.4,30.16,SW,221,6.0,10.0,11,0.00,,---,0.00,VWS V14.00,2013-02-16 00:15:00,
2013-02-15 16:20:00,74.5,18.6,30.16,SW,221,3.0,7.0,12,0.00,,---,0.00,VWS V14.00,2013-02-16 00:20:00,
2013-02-15 16:25:00,74.4,16.5,30.16,SW,221,3.0,6.0,11,0.00,,---,0.00,VWS V14.00,2013-02-16 00:25:00,
2013-02-15 16:30:00,74.3,18.5,30.16,SW,221,2.0,4.0,12,0.00,,---,0.00,VWS V14.00,2013-02-16 00:30:00,
2013-02-15 16:35:00,74.2,16.4,30.17,SW,221,0.0,4.0,11,0.00,,---,0.00,VWS V14.00,2013-02-16 00:35:00,
2013-02-15 16:40:00,74.1,16.3,30.16,SW,221,0.0,0.0,11,0.00,,---,0.00,VWS V14.00,2013-02-16 00:40:00,
2013-02-15 16:45:00,74.0,18.2,30.17,SW,221,0.0,0.0,12,0.00,,---,0.00,VWS V14.00,2013-02-16 00:45:00,
2013-02-15 16:50:00,73.8,18.1,30.17,SW,221,0.0,3.0,12,0.00,,---,0.00,VWS V14.00,2013-02-16 00:50:00,
2013-02-15 16:55:00,73.5,17.8,30.17,SW,221,0.0,2.0,12,0.00,,---,0.00,VWS V14.00,2013-02-16 00:55:00,
2013-02-15 17:00:00,73.3,17.7,30.17,SW,221,3.0,3.0,12,0.00,,---,0.00,VWS V14.00,2013-02-16 01:00:00,
2013-02-15 17:05:00,73.0,15.4,30.17,SW,221,6.0,8.0,11,0.00,,---,0.00,VWS V14.00,2013-02-16 01:05:00,
2013-02-15 17:10:00,72.5,15.0,30.17,WSW,258,13.0,13.0,11,0.00,,---,0.00,VWS V14.00,2013-02-16 01:10:00,
2013-02-15 17:15:00,72.1,14.7,30.17,East,80,10.0,15.0,11,0.00,,---,0.00,VWS V14.00,2013-02-16 01:15:00,
2013-02-15 17:20:00,72.0,14.7,30.17,East,80,3.0,15.0,11,0.00,,---,0.00,VWS V14.00,2013-02-16 01:20:00,
2013-02-15 17:25:00,71.7,12.3,30.17,ENE,66,7.0,18.0,10,0.00,,---,0.00,VWS V14.00,2013-02-16 01:25:00,
2013-02-15 17:30:00,71.6,12.2,30.17,ENE,62,19.0,21.0,10,0.00,,---,0.00,VWS V14.00,2013-02-16 01:30:00,
2013-02-15 17:35:00,71.7,12.3,30.18,ENE,70,8.0,24.0,10,0.00,,---,0.00,VWS V14.00,2013-02-16 01:35:00,
2013-02-15 17:40:00,71.6,12.2,30.18,ENE,59,4.0,20.0,10,0.00,,---,0.00,VWS V14.00,2013-02-16 01:40:00,
2013-02-15 17:45:00,71.2,14.0,30.18,ENE,59,4.0,12.0,11,0.00,,---,0.00,VWS V14.00,2013-02-16 01:45:00,
2013-02-15 17:50:00,70.5,15.5,30.18,ENE,59,7.0,8.0,12,0.00,,---,0.00,VWS V14.00,2013-02-16 01:50:00,
2013-02-15 17:55:00,69.9,15.0,30.18,ENE,59,4.0,9.0,12,0.00,,---,0.00,VWS V14.00,2013-02-16 01:55:00,
2013-02-15 18:00:00,69.6,14.8,30.18,ENE,59,4.0,8.0,12,0.00,,---,0.00,VWS V14.00,2013-02-16 02:00:00,
2013-02-15 18:05:00,69.3,16.4,30.18,ENE,59,2.0,4.0,13,0.00,,---,0.00,VWS V14.00,2013-02-16 02:05:00,
2013-02-15 18:10:00,69.0,14.3,30.18,ENE,59,2.0,4.0,12,0.00,,---,0.00,VWS V14.00,2013-02-16 02:10:00,
2013-02-15 18:15:00,69.1,14.4,30.19,ENE,59,3.0,3.0,12,0.00,,---,0.00,VWS V14.00,2013-02-16 02:15:00,
2013-02-15 18:21:00,69.4,14.6,30.19,ENE,59,0.0,2.0,12,0.00,,---,0.00,VWS V14.00,2013-02-16 02:21:00,
2013-02-15 18:26:00,69.3,14.6,30.19,ENE,59,0.0,0.0,12,0.00,,---,0.00,VWS V14.00,2013-02-16 02:26:00,
2013-02-15 18:31:00,69.3,14.6,30.19,ENE,59,0.0,0.0,12,0.00,,---,0.00,VWS V14.00,2013-02-16 02:31:00,
2013-02-15 18:36:00,68.5,15.8,30.19,ENE,59,0.0,3.0,13,0.00,,---,0.00,VWS V14.00,2013-02-16 02:36:00,
2013-02-15 18:41:00,67.1,16.3,30.19,ENE,59,2.0,5.0,14,0.00,,---,0.00,VWS V14.00,2013-02-16 02:41:00,
2013-02-15 18:46:00,66.1,17.1,30.19,ENE,59,2.0,4.0,15,0.00,,---,0.00,VWS V14.00,2013-02-16 02:46:00,
2013-02-15 18:51:00,65.4,16.6,30.20,ENE,59,2.0,4.0,15,0.00,,---,0.00,VWS V14.00,2013-02-16 02:51:00,
2013-02-15 18:56:00,64.9,16.2,30.20,ENE,59,4.0,7.0,15,0.00,,---,0.00,VWS V14.00,2013-02-16 02:56:00,
2013-02-15 19:01:00,65.3,16.5,30.19,ENE,59,1.0,7.0,15,0.00,,---,0.00,VWS V14.00,2013-02-16 03:01:00,
2013-02-15 19:06:00,65.8,15.3,30.20,ENE,59,3.0,4.0,14,0.00,,---,0.00,VWS V14.00,2013-02-16 03:06:00,
2013-02-15 19:11:00,66.2,17.2,30.20,ENE,59,0.0,2.0,15,0.00,,---,0.00,VWS V14.00,2013-02-16 03:11:00,
2013-02-15 19:16:00,65.7,15.2,30.20,ENE,59,2.0,7.0,14,0.00,,---,0.00,VWS V14.00,2013-02-16 03:16:00,
2013-02-15 19:21:00,65.7,15.2,30.20,ENE,59,4.0,8.0,14,0.00,,---,0.00,VWS V14.00,2013-02-16 03:21:00,
2013-02-15 19:26:00,65.8,15.3,30.20,ENE,59,2.0,4.0,14,0.00,,---,0.00,VWS V14.00,2013-02-16 03:26:00,
2013-02-15 19:31:00,65.6,15.1,30.20,ENE,59,9.0,9.0,14,0.00,,---,0.00,VWS V14.00,2013-02-16 03:31:00,
2013-02-15 19:36:00,65.3,14.9,30.20,ENE,59,1.0,9.0,14,0.00,,---,0.00,VWS V14.00,2013-02-16 03:36:00,
2013-02-15 19:41:00,65.4,16.6,30.20,ENE,59,3.0,4.0,15,0.00,,---,0.00,VWS V14.00,2013-02-16 03:41:00,
2013-02-15 19:46:00,64.1,17.0,30.20,ENE,59,4.0,7.0,16,0.00,,---,0.00,VWS V14.00,2013-02-16 03:46:00,
2013-02-15 19:51:00,63.0,16.1,30.21,ENE,59,7.0,9.0,16,0.00,,---,0.00,VWS V14.00,2013-02-16 03:51:00,
2013-02-15 19:56:00,63.1,16.2,30.20,ENE,59,10.0,10.0,16,0.00,,---,0.00,VWS V14.00,2013-02-16 03:56:00,
2013-02-15 20:01:00,63.9,16.9,30.21,ENE,59,5.0,9.0,16,0.00,,---,0.00,VWS V14.00,2013-02-16 04:01:00,
2013-02-15 20:06:00,63.6,16.6,30.21,ENE,59,4.0,7.0,16,0.00,,---,0.00,VWS V14.00,2013-02-16 04:06:00,
2013-02-15 20:11:00,63.1,16.2,30.21,ENE,59,4.0,9.0,16,0.00,,---,0.00,VWS V14.00,2013-02-16 04:11:00,
2013-02-15 20:16:00,63.1,16.2,30.21,ENE,59,5.0,11.0,16,0.00,,---,0.00,VWS V14.00,2013-02-16 04:16:00,
2013-02-15 20:21:00,63.6,16.6,30.21,ENE,59,5.0,10.0,16,0.00,,---,0.00,VWS V14.00,2013-02-16 04:21:00,
2013-02-15 20:26:00,63.8,15.3,30.21,ENE,58,9.0,17.0,15,0.00,,---,0.00,VWS V14.00,2013-02-16 04:26:00,
2013-02-15 20:31:00,64.6,15.9,30.21,NE,55,7.0,16.0,15,0.00,,---,0.00,VWS V14.00,2013-02-16 04:31:00,
2013-02-15 20:36:00,64.7,16.0,30.21,NE,51,6.0,14.0,15,0.00,,---,0.00,VWS V14.00,2013-02-16 04:36:00,
2013-02-15 20:41:00,64.2,15.6,30.21,NE,51,6.0,10.0,15,0.00,,---,0.00,VWS V14.00,2013-02-16 04:41:00,
2013-02-15 20:46:00,64.3,15.7,30.22,NE,50,7.0,11.0,15,0.00,,---,0.00,VWS V14.00,2013-02-16 04:46:00,
2013-02-15 20:51:00,64.0,15.4,30.22,NE,49,4.0,12.0,15,0.00,,---,0.00,VWS V14.00,2013-02-16 04:51:00,
2013-02-15 20:56:00,64.1,15.5,30.22,NE,49,7.0,12.0,15,0.00,,---,0.00,VWS V14.00,2013-02-16 04:56:00,
2013-02-15 21:01:00,64.3,15.7,30.22,NE,48,6.0,12.0,15,0.00,,---,0.00,VWS V14.00,2013-02-16 05:01:00,
2013-02-15 21:06:00,64.3,15.7,30.22,NE,48,7.0,13.0,15,0.00,,---,0.00,VWS V14.00,2013-02-16 05:06:00,
2013-02-15 21:11:00,64.2,15.6,30.22,NE,48,7.0,10.0,15,0.00,,---,0.00,VWS V14.00,2013-02-16 05:11:00,
2013-02-15 21:16:00,64.2,17.1,30.22,NE,48,5.0,11.0,16,0.00,,---,0.00,VWS V14.00,2013-02-16 05:16:00,
2013-02-15 21:21:00,63.8,16.8,30.22,NE,47,6.0,11.0,16,0.00,,---,0.00,VWS V14.00,2013-02-16 05:21:00,
2013-02-15 21:26:00,63.6,16.6,30.22,NE,47,4.0,9.0,16,0.00,,---,0.00,VWS V14.00,2013-02-16 05:26:00,
2013-02-15 21:31:00,63.2,16.3,30.22,NE,47,6.0,9.0,16,0.00,,---,0.00,VWS V14.00,2013-02-16 05:31:00,
2013-02-15 21:36:00,63.1,16.2,30.22,NE,47,5.0,10.0,16,0.00,,---,0.00,VWS V14.00,2013-02-16 05:36:00,
2013-02-15 21:41:00,62.6,17.2,30.22,NE,47,4.0,7.0,17,0.00,,---,0.00,VWS V14.00,2013-02-16 05:41:00,
2013-02-15 21:46:00,62.2,16.9,30.22,NE,47,5.0,7.0,17,0.00,,---,0.00,VWS V14.00,2013-02-16 05:46:00,
2013-02-15 21:51:00,62.3,17.0,30.22,NE,47,7.0,8.0,17,0.00,,---,0.00,VWS V14.00,2013-02-16 05:51:00,
2013-02-15 21:56:00,62.3,17.0,30.22,NE,47,5.0,7.0,17,0.00,,---,0.00,VWS V14.00,2013-02-16 05:56:00,
2013-02-15 22:01:00,62.2,16.9,30.22,NE,47,4.0,10.0,17,0.00,,---,0.00,VWS V14.00,2013-02-16 06:01:00,
2013-02-15 22:06:00,62.5,15.7,30.22,NE,47,5.0,9.0,16,0.00,,---,0.00,VWS V14.00,2013-02-16 06:06:00,
2013-02-15 22:11:00,62.6,15.8,30.22,NE,47,5.0,6.0,16,0.00,,---,0.00,VWS V14.00,2013-02-16 06:11:00,
2013-02-15 22:16:00,62.2,15.5,30.22,NE,47,4.0,8.0,16,0.00,,---,0.00,VWS V14.00,2013-02-16 06:16:00,
2013-02-15 22:21:00,62.1,15.4,30.22,NE,47,10.0,10.0,16,0.00,,---,0.00,VWS V14.00,2013-02-16 06:21:00,
2013-02-15 22:26:00,62.3,15.6,30.22,NE,47,6.0,10.0,16,0.00,,---,0.00,VWS V14.00,2013-02-16 06:26:00,
2013-02-15 22:31:00,62.3,15.6,30.22,NE,47,6.0,8.0,16,0.00,,---,0.00,VWS V14.00,2013-02-16 06:31:00,
2013-02-15 22:36:00,62.8,16.0,30.22,NE,47,4.0,8.0,16,0.00,,---,0.00,VWS V14.00,2013-02-16 06:36:00,
2013-02-15 22:41:00,63.4,16.5,30.22,NE,47,8.0,11.0,16,0.00,,---,0.00,VWS V14.00,2013-02-16 06:41:00,
2013-02-15 22:46:00,63.2,16.3,30.22,NE,47,2.0,11.0,16,0.00,,---,0.00,VWS V14.00,2013-02-16 06:46:00,
2013-02-15 22:51:00,63.4,15.0,30.22,NE,47,6.0,10.0,15,0.00,,---,0.00,VWS V14.00,2013-02-16 06:51:00,
2013-02-15 22:56:00,63.5,15.1,30.22,NE,47,5.0,10.0,15,0.00,,---,0.00,VWS V14.00,2013-02-16 06:56:00,
2013-02-15 23:01:00,63.8,15.3,30.22,NE,47,5.0,12.0,15,0.00,,---,0.00,VWS V14.00,2013-02-16 07:01:00,
2013-02-15 23:06:00,63.9,15.4,30.22,NE,47,7.0,10.0,15,0.00,,---,0.00,VWS V14.00,2013-02-16 07:06:00,
2013-02-15 23:11:00,64.1,14.0,30.22,NE,47,7.0,10.0,14,0.00,,---,0.00,VWS V14.00,2013-02-16 07:11:00,
2013-02-15 23:16:00,64.5,14.3,30.22,NE,47,6.0,9.0,14,0.00,,---,0.00,VWS V14.00,2013-02-16 07:16:00,
2013-02-15 23:21:00,64.8,14.5,30.22,NE,47,5.0,7.0,14,0.00,,---,0.00,VWS V14.00,2013-02-16 07:21:00,
2013-02-15 23:26:00,64.4,14.2,30.22,NE,47,4.0,6.0,14,0.00,,---,0.00,VWS V14.00,2013-02-16 07:26:00,
2013-02-15 23:31:00,64.2,14.0,30.22,NE,47,2.0,6.0,14,0.00,,---,0.00,VWS V14.00,2013-02-16 07:31:00,
2013-02-15 23:36:00,63.6,15.1,30.22,NE,47,0.0,2.0,15,0.00,,---,0.00,VWS V14.00,2013-02-16 07:36:00,
2013-02-15 23:41:00,63.1,14.7,30.22,NE,47,0.0,0.0,15,0.00,,---,0.00,VWS V14.00,2013-02-16 07:41:00,
2013-02-15 23:46:00,62.8,14.5,30.22,NE,47,1.0,3.0,15,0.00,,---,0.00,VWS V14.00,2013-02-16 07:46:00,
2013-02-15 23:51:00,62.6,15.8,30.22,NE,47,3.0,4.0,16,0.00,,---,0.00,VWS V14.00,2013-02-16 07:51:00,
2013-02-15 23:56:00,61.6,15.0,30.22,NE,47,4.0,6.0,16,0.00,,---,0.00,VWS V14.00,2013-02-16 07:56:00,